GEFSGL_500_meanwind_006.txt.gz
Wind_Speed
56 58 60 62 62 61 60 58 50 40 37 37 37 39 42 44 46 49 51 52 53 52 52 50 49 47 44 42 39 35 33 29 22 22 27 30 30 31 31 29 27 26 25
59 61 62 63 61 60 56 48 39 36 36 37 38 41 44 47 49 50 51 52 52 50 49 47 45 44 42 41 38 34 31 27 21 17 21 24 27 28 27 25 24 24 24
62 62 62 61 60 56 48 40 36 36 37 38 41 44 47 49 49 50 50 50 49 48 45 43 41 39 37 36 36 33 29 24 19 16 19 21 22 22 21 21 22 22 22
62 61 59 59 56 47 40 37 36 37 39 41 45 48 49 49 49 48 48 48 47 45 42 40 38 35 32 31 31 29 26 22 19 16 17 19 19 18 16 17 18 19 18
59 57 57 54 45 38 36 36 37 39 42 45 48 50 51 49 48 47 45 44 42 40 39 37 34 31 27 26 26 24 22 20 18 15 16 18 18 17 15 14 14 15 14
56 55 52 44 38 36 37 38 40 42 46 49 51 52 50 48 47 47 44 41 39 36 35 33 31 27 24 23 22 21 19 18 16 14 14 15 16 16 14 11 11 11 10
53 50 43 38 37 37 39 41 43 46 48 50 52 51 50 49 46 44 42 39 37 35 32 30 27 24 21 20 19 17 16 15 14 12 10 10 11 12 10 7 7 6 4
49 43 38 36 37 39 41 44 47 49 51 52 51 50 50 48 45 42 40 38 35 32 28 25 23 21 19 17 16 14 12 11 10 9 8 8 8 8 5 3 4 3 1
41 36 35 37 39 41 43 46 48 50 51 51 50 50 48 44 42 39 37 34 30 25 23 22 21 19 16 14 13 12 10 10 10 8 8 8 8 7 5 6 6 4 2
34 33 35 37 40 42 45 47 49 50 51 51 51 48 44 41 39 35 29 26 22 20 20 19 18 16 12 11 11 12 11 10 9 9 9 9 9 10 10 9 7 5 4
31 33 35 38 41 43 45 47 48 50 52 51 48 44 42 40 36 30 24 21 19 18 16 16 15 11 8 9 12 12 11 10 9 9 10 11 12 13 14 12 10 7 6
30 33 36 39 41 43 44 46 48 50 50 47 44 42 40 36 30 26 23 20 18 16 15 14 12 6 5 10 12 11 10 8 9 13 15 15 15 17 17 15 12 9 8
31 34 37 39 41 43 43 45 47 47 46 43 42 39 34 29 26 25 23 20 18 16 14 11 6 4 8 12 12 11 10 13 16 19 19 17 17 19 18 15 12 10 11
31 35 37 39 41 42 42 43 44 43 42 41 38 32 26 24 23 23 21 19 17 12 6 3 3 7 10 14 15 15 16 19 21 20 18 16 16 16 16 14 12 12 15
32 34 37 39 41 41 40 42 42 41 40 37 32 26 22 21 20 20 18 14 8 4 4 3 5 9 13 18 20 19 19 19 20 19 16 15 15 17 16 14 13 15 19
32 34 37 39 41 40 40 41 41 39 37 33 29 24 21 20 20 20 15 9 7 9 9 8 8 10 14 20 22 22 21 20 20 19 17 17 17 18 17 15 15 19 23
32 35 37 39 40 39 39 40 39 36 35 32 28 22 19 18 18 17 13 10 9 10 11 12 12 11 14 21 24 24 24 22 20 18 16 17 17 16 16 16 18 23 25
33 35 37 38 38 38 38 38 37 35 34 31 27 21 17 15 14 14 12 10 9 10 11 13 15 14 15 21 24 24 24 23 20 16 15 15 15 15 15 16 20 24 24
32 34 35 36 36 37 37 36 35 34 32 30 26 21 18 15 12 13 13 9 8 8 9 12 16 17 17 20 23 23 22 20 18 16 16 16 15 15 16 17 21 24 25
32 34 34 34 35 35 34 35 34 32 30 28 23 20 19 17 13 13 15 13 9 8 8 11 15 18 19 20 21 21 20 20 19 18 17 17 16 16 17 19 21 23 24
31 32 33 32 33 33 33 34 33 31 29 27 24 20 19 18 14 11 12 14 12 9 9 11 14 16 18 20 20 21 21 21 20 18 16 16 16 17 18 19 20 20 20
30 31 31 31 32 33 33 33 32 30 28 27 26 24 21 19 16 13 11 11 11 11 9 11 13 15 16 17 18 20 20 20 19 17 16 16 17 18 18 18 17 16 16
29 30 31 32 33 33 33 32 30 29 27 26 26 25 22 20 17 16 14 12 11 10 10 10 11 13 14 15 16 17 18 19 18 17 16 16 17 18 17 16 14 12 11
30 31 32 33 34 33 31 29 28 27 27 26 26 25 23 21 19 18 18 17 14 11 10 10 10 12 13 13 13 14 16 16 16 16 15 15 16 17 17 16 14 11 10
31 33 34 36 35 33 30 27 25 25 26 27 27 26 25 22 18 16 17 19 18 15 11 10 10 11 12 13 13 13 13 13 14 13 13 14 16 17 18 17 16 15 13
33 35 37 37 35 32 29 26 24 23 24 25 27 28 27 24 19 15 13 14 16 16 14 11 11 11 12 13 14 14 14 14 13 13 12 13 15 17 17 17 16 16 15

GEFSGL_500_meanwind_012.txt.gz
Wind_Speed
54 52 50 48 49 52 56 57 55 54 55 53 50 47 45 45 45 47 49 52 55 58 61 63 63 61 59 58 57 55 53 52 49 43 39 37 38 38 34 30 27 27 28
51 48 46 47 49 53 54 52 52 53 52 49 47 46 45 46 48 51 54 57 59 62 64 65 63 60 57 55 53 50 48 46 44 38 34 33 34 32 28 25 23 23 25
43 45 47 48 51 52 51 51 52 51 49 47 46 46 48 50 52 55 58 60 63 64 65 64 61 57 53 49 47 44 43 41 38 33 28 28 29 27 22 20 19 20 22
48 48 48 49 50 50 50 51 50 48 47 46 47 49 51 53 56 58 60 62 63 63 62 58 54 50 46 43 40 39 38 35 33 28 24 24 25 22 18 17 17 19 20
50 48 47 48 48 48 49 48 47 46 46 47 49 52 54 56 58 59 60 61 60 57 53 49 46 43 40 37 35 34 32 30 27 23 20 20 20 18 16 15 16 17 18
46 45 45 46 47 47 47 46 45 46 47 49 52 54 56 57 58 58 58 56 54 51 46 43 41 38 34 30 29 27 27 24 22 19 16 15 16 14 14 13 14 15 17
43 43 44 46 46 45 44 44 45 47 49 52 54 55 55 56 56 55 53 52 49 45 40 36 33 29 25 23 23 23 22 19 16 14 12 12 11 11 11 11 12 14 14
41 43 44 45 44 43 43 44 46 49 51 53 54 53 54 54 52 50 48 45 41 35 30 28 25 22 20 20 20 20 17 14 12 11 10 9 8 8 8 8 9 9 9
42 43 42 41 41 42 43 46 49 51 52 53 52 52 52 50 47 44 40 35 32 29 28 25 22 19 18 18 17 15 12 9 10 10 9 7 6 6 6 6 5 5 4
41 40 39 39 40 43 45 48 49 51 51 51 51 50 47 44 41 37 33 30 30 29 26 23 20 18 17 16 13 10 8 9 11 11 9 6 5 6 6 6 5 2 1
38 36 36 39 41 44 47 48 49 49 49 49 49 46 42 39 35 32 30 30 30 27 24 20 16 15 14 12 8 7 9 11 11 10 8 6 6 7 8 7 5 3 4
34 35 37 40 43 45 46 47 47 46 46 45 44 41 38 35 31 29 29 29 26 22 18 14 11 10 7 4 6 9 11 12 11 9 8 8 9 10 10 8 6 6 8
32 35 38 41 43 44 44 44 43 43 42 42 40 37 34 30 28 26 26 23 20 17 14 9 5 2 2 6 10 12 12 12 11 10 10 10 11 11 10 9 7 9 11
32 36 39 41 41 41 41 40 40 40 39 38 35 32 28 25 23 21 20 17 16 15 12 8 4 5 8 12 14 13 13 12 13 13 13 13 14 13 11 9 9 11 13
33 36 38 39 39 38 38 37 37 37 36 33 30 26 23 21 19 17 14 13 14 15 14 10 9 11 15 17 17 16 16 15 15 14 15 15 15 13 11 10 11 13 15
34 36 37 36 36 36 36 36 35 35 33 29 25 22 20 18 17 15 13 13 15 16 15 12 12 16 19 20 21 19 18 16 15 15 15 15 15 12 11 12 14 15 16
33 34 35 35 35 35 35 34 33 32 29 27 23 20 18 16 16 14 12 12 13 15 15 12 14 19 22 23 22 20 17 15 14 14 14 14 13 12 13 15 17 18 19
32 33 34 35 35 34 32 31 30 28 27 25 22 19 16 14 14 14 11 10 11 12 13 13 16 21 23 23 22 19 17 15 14 14 14 13 13 14 16 19 20 20 22
32 34 35 35 34 32 29 27 26 25 25 23 21 18 15 12 12 14 12 9 9 10 12 13 16 21 23 22 21 18 16 14 14 14 13 13 14 15 19 22 22 22 22
33 35 35 33 31 28 25 23 23 23 23 22 20 17 15 13 11 11 12 10 8 8 11 13 16 20 21 21 19 16 14 12 11 12 12 13 15 17 21 23 23 23 23
34 34 32 30 27 24 21 20 21 22 22 21 19 17 16 15 12 10 9 10 8 8 10 13 15 18 20 19 16 14 12 10 9 11 12 13 16 19 23 23 24 23 23
33 32 29 26 23 21 19 19 20 22 23 22 20 18 17 16 14 11 10 10 9 8 10 12 14 16 18 17 15 13 11 9 9 11 12 15 17 21 22 22 22 22 21
31 30 28 24 22 20 19 19 20 22 23 22 20 17 16 16 15 13 11 10 10 9 9 12 14 15 15 14 13 12 11 10 10 11 13 15 18 19 20 20 20 19 18
32 30 27 24 22 20 19 19 20 22 24 24 21 18 14 13 14 14 12 11 10 10 10 11 13 14 14 13 12 12 11 11 11 12 13 15 17 18 18 17 16 16 14
33 31 28 25 23 22 21 21 22 23 24 25 24 21 17 15 15 14 13 13 12 12 11 10 12 13 14 14 13 12 11 11 11 12 13 14 15 15 15 14 14 13 12
35 33 30 28 26 24 24 23 24 25 25 25 25 23 20 19 18 17 16 16 15 15 13 11 10 10 12 12 12 11 11 10 10 11 11 12 12 12 12 11 10 10 9

GEFSGL_500_meanwind_018.txt.gz
Wind_Speed
40 42 45 46 48 50 50 50 51 51 52 52 53 55 56 57 58 58 57 57 56 56 57 58 59 60 61 62 63 64 64 64 63 59 56 52 50 50 50 49 48 47 47
42 44 47 49 51 51 52 52 51 50 51 52 53 55 56 57 57 56 56 56 57 57 58 59 60 61 62 62 61 59 58 56 54 50 47 44 43 43 43 43 42 41 40
45 48 49 50 51 52 51 51 50 50 51 53 55 56 56 56 55 55 56 57 58 59 59 60 60 61 59 57 55 52 49 47 44 41 38 37 37 37 37 36 35 35 33
48 49 49 49 50 50 50 49 49 50 52 54 54 54 54 54 55 56 57 57 58 59 59 59 58 56 52 48 44 40 38 35 33 31 29 29 30 31 31 30 29 27 26
49 49 49 49 49 50 49 48 50 52 53 53 52 52 53 54 54 56 57 58 58 57 56 54 51 47 42 37 33 31 30 27 25 23 23 23 25 25 25 23 20 19 19
47 48 49 49 49 48 48 49 51 51 51 51 51 52 53 54 55 56 56 56 56 53 50 46 42 39 34 31 29 27 25 23 22 21 20 20 19 18 16 14 14 14 15
49 50 49 48 46 46 47 49 49 49 49 50 51 53 54 54 55 55 55 53 50 46 42 39 36 34 30 28 26 24 22 21 19 18 16 15 12 10 8 8 9 10 12
51 50 47 44 44 46 47 47 48 48 49 50 52 52 53 53 53 52 49 46 42 39 37 35 32 31 28 25 23 21 18 17 14 12 10 8 5 4 4 5 7 8 9
49 45 42 41 43 45 45 46 47 48 49 50 50 50 50 50 48 44 41 38 36 34 33 32 29 26 24 21 18 16 13 10 8 6 4 2 1 1 3 4 4 6 7
43 38 38 40 42 42 43 45 46 47 48 48 48 47 46 44 40 37 34 32 30 29 29 28 25 20 17 13 11 9 7 3 2 2 3 4 4 4 4 3 2 3 5
34 35 37 38 39 41 43 44 45 46 46 46 45 43 40 36 33 31 29 27 26 25 24 22 18 12 8 5 3 2 3 5 6 7 7 7 7 6 4 2 0 2 5
31 33 35 36 38 41 42 43 44 44 44 43 40 37 33 30 28 27 25 24 23 23 20 15 10 5 2 3 5 7 8 9 10 9 9 8 8 6 5 3 2 4 4
30 32 34 36 39 40 41 42 42 42 40 37 34 31 28 26 24 23 22 22 23 20 16 11 7 7 8 9 11 11 12 12 11 10 10 9 8 7 5 4 4 4 5
29 32 35 37 38 40 41 40 39 37 33 30 28 26 24 22 21 20 19 20 19 15 10 9 10 12 13 14 14 13 13 12 11 11 11 10 9 7 7 6 7 9 10
31 33 35 37 39 39 39 37 33 29 26 25 24 22 20 18 17 16 16 16 14 10 9 11 13 15 16 16 16 15 13 13 12 12 11 10 9 9 9 10 11 13 15
31 34 36 38 38 37 34 29 25 23 22 22 21 19 16 14 14 14 14 14 12 9 10 13 16 18 18 18 18 16 14 13 13 12 11 10 10 11 11 12 13 15 18
32 35 36 36 35 31 27 23 20 19 20 20 18 15 13 11 12 12 12 12 11 10 12 15 18 19 20 19 18 16 14 13 13 12 11 11 12 13 14 15 16 18 19
33 34 34 32 29 25 21 18 17 18 19 18 15 13 11 10 9 11 10 10 11 10 13 17 19 20 19 18 17 16 14 13 12 12 12 13 14 16 16 17 19 21 22
33 32 30 26 22 19 17 16 16 17 18 16 14 12 11 8 7 9 10 10 10 11 15 18 19 19 18 17 16 15 14 12 11 11 12 15 17 18 18 19 20 22 22
29 27 24 21 18 17 16 16 16 17 17 15 13 12 10 8 7 8 10 11 11 12 15 17 17 17 16 16 15 14 13 12 11 11 14 16 18 20 20 21 22 22 21
25 22 20 18 17 16 16 16 17 16 15 13 11 9 8 7 8 10 11 12 12 13 15 16 15 14 14 14 13 12 11 11 11 12 15 18 20 21 22 23 23 22 21
22 20 19 18 17 17 17 17 17 15 13 11 9 8 8 8 9 11 12 14 14 13 14 14 13 12 12 10 10 11 11 11 11 13 16 18 20 21 22 23 24 24 23
22 20 19 17 17 17 17 17 16 15 13 11 9 8 9 10 11 12 14 15 15 14 13 13 12 10 9 9 10 10 11 11 13 14 17 19 20 20 21 21 22 22 21
23 21 20 18 18 17 17 17 16 15 13 12 12 11 11 12 13 15 16 17 17 16 14 12 11 9 9 9 10 10 11 12 14 16 18 19 20 20 19 18 18 18 17
26 24 22 21 19 19 18 18 17 16 15 14 14 14 13 14 15 16 17 18 17 16 15 13 11 10 9 10 10 11 12 13 15 17 18 19 19 19 18 17 16 14 13
29 28 26 25 23 22 21 20 19 18 17 17 17 17 17 17 17 17 18 18 17 16 15 14 12 11 11 11 11 12 13 14 15 16 17 18 17 17 16 15 14 13 12

GEFSGL_500_meanwind_024.txt.gz
Wind_Speed
41 43 44 46 46 47 48 50 52 54 56 58 59 59 59 59 60 61 62 62 63 65 66 68 69 70 69 69 69 69 68 68 68 64 62 59 55 53 51 51 52 51 51
43 44 46 47 48 49 50 53 55 57 57 58 59 59 60 62 62 62 62 63 64 66 68 69 69 69 69 68 68 67 65 63 61 56 51 47 43 41 41 40 39 39 40
45 46 48 50 51 52 54 56 58 58 59 60 60 62 64 65 63 61 61 62 64 67 68 68 68 68 67 66 64 60 56 52 49 45 39 36 35 35 33 32 32 32 33
49 50 52 54 55 56 57 58 59 61 61 63 64 65 65 62 59 59 60 63 65 66 66 67 66 65 63 59 54 49 46 42 40 36 31 30 30 29 29 28 28 28 28
53 54 55 55 56 57 58 60 61 63 64 66 64 61 60 57 56 58 61 62 64 64 64 64 62 58 53 49 45 42 39 36 33 29 27 26 27 27 26 26 24 24 24
55 55 55 55 57 59 61 63 65 65 64 61 57 54 53 54 56 59 60 61 61 61 60 57 53 49 46 43 40 37 33 30 27 24 23 23 24 23 22 20 19 19 19
54 54 54 56 58 61 65 66 63 60 57 53 50 50 52 54 56 57 58 58 58 56 52 48 44 42 40 37 33 30 27 25 22 20 19 20 18 17 15 14 13 12 12
51 52 55 57 59 61 63 62 59 52 49 47 47 50 52 53 53 54 54 53 50 46 43 41 39 37 34 30 26 23 20 17 15 14 14 13 12 11 10 9 8 8 7
49 52 54 56 59 61 59 55 50 46 45 46 47 49 50 50 50 49 47 44 41 38 37 36 34 30 27 22 18 14 10 9 9 9 8 8 7 7 6 6 6 6 5
49 52 55 57 58 56 52 48 44 44 45 46 46 47 47 46 44 41 38 35 33 32 32 31 28 24 19 14 10 7 5 4 5 4 4 5 5 6 6 7 7 7 7
50 52 53 51 48 45 43 42 42 43 44 44 44 43 41 39 36 33 30 28 27 26 25 23 19 16 11 8 6 5 5 5 5 6 6 6 7 7 8 9 10 10 10
47 47 44 42 41 40 39 40 41 42 42 41 39 36 33 30 28 26 25 24 22 21 18 15 12 9 7 7 7 7 8 8 8 8 8 8 8 9 10 11 11 11 9
39 37 36 35 37 38 39 39 39 38 36 34 31 28 26 24 22 21 21 20 19 16 13 10 7 6 7 8 9 10 10 10 9 9 9 9 10 11 12 12 12 11 8
31 32 33 34 35 36 37 36 34 31 28 25 23 22 21 19 18 18 18 17 16 12 8 6 6 7 9 10 10 10 10 10 9 9 10 11 12 13 13 13 13 12 10
30 32 33 34 34 33 32 29 26 23 21 20 20 19 18 17 16 15 14 13 11 8 5 5 7 9 11 11 11 11 10 9 10 11 12 13 13 14 15 15 15 15 14
30 31 32 31 29 27 24 21 19 18 18 18 18 17 16 15 14 12 11 9 6 4 4 7 10 12 12 12 11 10 10 10 10 12 13 14 15 16 17 17 18 17 16
30 30 29 27 24 21 19 17 16 16 16 17 16 15 14 13 11 10 8 6 4 5 8 11 12 13 12 12 11 11 10 11 11 13 14 14 16 17 18 20 21 20 19
29 27 25 22 19 18 16 16 16 16 16 15 14 13 12 10 9 7 6 4 6 9 12 13 13 13 13 12 12 11 11 11 12 13 14 15 16 18 20 21 22 22 22
27 24 22 19 17 16 16 16 16 15 14 13 11 10 9 8 7 6 6 7 10 12 13 14 14 13 13 12 11 11 11 12 12 13 14 16 17 19 21 22 23 24 24
24 22 20 18 17 16 16 15 14 13 12 10 8 7 7 6 6 6 8 10 13 14 14 14 13 13 12 12 11 11 11 11 12 13 14 16 17 19 20 22 23 24 25
22 20 18 17 16 15 15 13 12 10 8 6 5 5 5 6 7 8 10 12 13 13 13 12 12 12 12 11 11 10 10 11 12 13 15 16 17 18 19 20 21 23 24
20 19 17 16 15 14 13 11 10 7 5 5 4 5 5 7 9 11 12 13 13 12 12 11 11 11 11 11 11 10 11 11 12 14 15 16 17 17 18 18 19 20 21
20 19 17 16 15 13 11 10 8 7 6 6 6 7 8 10 12 13 14 14 12 11 10 9 10 11 11 11 10 10 11 12 13 14 15 16 16 17 17 17 18 18 19
23 21 19 17 15 13 12 11 10 9 8 8 9 10 11 13 14 15 15 14 12 11 9 9 9 10 10 10 11 11 12 12 13 13 14 16 16 17 17 17 17 17 18
26 24 22 20 17 16 14 14 13 12 12 12 12 13 14 16 16 17 16 14 12 11 10 9 9 9 10 11 11 12 12 12 13 13 13 14 15 16 15 15 15 16 16
30 28 26 24 21 19 18 17 16 16 16 16 16 16 16 17 17 16 15 14 12 11 10 10 10 10 11 11 12 12 12 13 13 13 13 13 14 14 13 13 13 13 13

GEFSGL_500_meanwind_030.txt.gz
Wind_Speed
39 41 44 47 50 53 54 56 57 58 58 59 59 60 61 62 62 63 63 63 63 64 66 66 67 66 66 67 67 69 70 72 72 70 70 68 65 61 56 54 52 50 48
40 43 47 51 54 56 57 59 60 61 62 63 63 64 64 64 64 63 62 62 63 63 63 63 63 64 64 65 66 68 69 70 69 66 61 57 54 50 47 45 43 40 39
43 47 51 54 56 58 60 62 63 64 65 65 65 64 63 63 62 62 62 62 61 61 61 61 60 61 62 63 65 66 65 64 62 57 51 47 43 41 38 35 33 32 31
49 51 53 55 58 60 62 63 64 64 64 63 62 61 61 61 61 60 60 60 61 61 59 58 58 59 61 62 61 60 58 54 50 47 41 37 34 33 30 28 28 28 27
54 54 54 56 57 59 60 61 61 61 60 59 59 59 59 59 59 59 60 59 56 55 55 55 56 58 58 57 54 51 47 43 39 36 32 28 26 25 24 24 23 24 24
56 55 55 56 56 56 57 57 57 57 57 57 58 57 57 58 58 57 55 53 52 52 53 54 54 53 51 48 44 41 37 34 29 25 22 20 19 19 19 19 19 18 18
54 54 53 53 52 52 53 54 54 53 54 55 55 56 56 55 54 52 50 50 51 51 51 50 48 45 41 38 34 31 29 25 21 17 16 15 15 16 16 16 16 16 16
52 51 50 49 49 49 50 50 50 51 52 53 53 53 52 50 48 48 48 49 49 48 46 43 40 35 32 28 25 23 21 18 16 14 14 14 14 14 14 14 13 13 14
47 45 44 44 45 46 47 48 49 49 50 50 49 47 46 45 45 46 46 45 44 41 38 35 31 27 24 21 19 17 14 13 12 12 13 13 14 14 14 14 14 14 13
42 41 41 42 43 44 45 46 46 46 44 43 42 43 43 43 43 42 40 38 35 32 30 28 25 21 17 15 13 11 10 11 12 12 13 14 14 15 16 16 15 14 13
38 39 40 40 41 42 41 41 41 40 40 41 41 40 39 38 37 35 33 30 27 25 23 21 19 15 12 9 8 9 9 11 12 14 15 16 17 18 18 16 14 11 10
36 37 37 37 37 37 37 38 38 38 38 37 36 35 33 32 31 29 26 23 21 19 17 15 12 9 8 7 7 8 10 12 14 16 17 18 18 17 16 13 11 10 9
33 33 33 34 35 36 36 36 35 34 33 32 30 29 28 27 25 22 20 18 16 13 10 7 5 5 5 6 7 9 12 14 16 17 18 18 17 16 15 13 12 11 11
31 32 34 35 35 34 34 33 31 29 28 26 25 24 23 21 19 18 16 14 9 6 3 3 4 5 6 7 9 11 13 15 16 17 18 18 19 18 18 16 14 13 13
31 32 33 33 32 31 29 27 25 24 22 21 20 19 18 17 15 14 13 9 5 3 3 5 6 7 7 8 10 12 13 14 16 17 18 19 20 20 19 17 16 16 16
31 31 30 29 27 25 23 22 20 19 18 17 17 16 15 13 12 10 7 4 2 5 7 8 8 8 8 10 11 12 14 15 16 17 18 20 20 20 19 18 17 16 16
29 28 26 25 23 20 18 17 16 15 15 15 14 13 12 11 8 6 3 4 7 9 10 10 9 9 10 10 11 13 14 15 16 17 18 20 21 20 20 19 18 17 17
26 24 23 21 19 17 15 13 13 12 12 11 10 10 9 7 5 4 5 9 11 11 11 10 10 10 10 11 11 13 14 15 15 16 18 21 22 22 22 20 19 18 17
22 21 20 18 16 14 12 11 10 9 8 7 7 7 6 5 5 7 10 12 12 11 11 10 10 10 10 11 12 13 14 15 15 16 18 20 22 23 23 22 21 20 19
21 19 17 15 13 11 10 8 7 6 5 4 5 5 5 6 8 11 13 13 12 11 10 10 10 10 11 11 12 13 14 15 15 16 17 19 21 23 23 24 23 23 22
19 17 15 13 10 9 7 6 4 3 3 4 4 6 7 9 12 14 14 13 12 11 10 10 10 10 10 11 12 13 14 15 15 16 17 19 20 22 23 24 24 24 25
19 16 14 12 10 8 6 5 5 5 5 6 7 9 10 12 13 14 13 12 11 11 11 10 10 11 11 12 13 14 15 15 16 16 17 18 20 21 23 24 24 24 25
20 18 15 13 12 10 9 8 8 8 9 9 10 11 13 14 14 13 12 10 10 10 10 10 11 11 11 12 14 15 15 16 16 17 17 18 19 21 23 24 25 25 24
22 20 18 16 14 13 12 12 12 12 13 13 14 14 15 14 13 12 11 10 10 10 10 10 10 11 12 12 14 15 15 16 17 17 17 18 19 20 21 23 23 24 24
25 23 21 19 18 17 17 17 16 16 16 16 16 16 15 14 13 11 11 10 10 10 10 10 11 11 12 13 14 14 14 15 15 16 16 17 18 19 20 21 22 22 23
28 27 25 24 22 22 21 20 19 18 18 17 16 15 14 13 12 11 10 10 10 10 10 11 11 12 12 13 13 14 14 14 14 14 14 15 16 17 18 19 20 20 21

GEFSGL_500_meanwind_036.txt.gz
Wind_Speed
47 49 50 50 50 49 49 49 49 51 53 54 56 58 59 60 61 63 64 65 65 65 64 63 62 62 61 61 61 62 63 64 63 62 64 66 66 65 63 61 58 56 54
50 50 51 52 52 52 52 53 54 55 56 57 58 59 60 61 62 63 64 64 63 62 61 61 60 60 60 60 61 61 62 63 62 62 60 59 58 55 53 50 47 45 42
52 53 54 54 55 56 56 56 57 57 58 58 59 60 61 61 62 62 62 61 60 59 58 58 58 58 59 59 60 60 60 61 60 58 54 51 48 45 43 41 39 36 33
56 57 57 58 58 58 58 58 57 58 58 59 60 60 60 60 60 60 59 58 57 56 56 56 57 57 58 58 58 57 57 56 53 49 45 41 39 37 36 33 31 30 29
58 58 58 58 58 57 57 57 58 58 58 58 58 58 58 58 57 57 56 55 55 55 55 56 56 56 56 55 55 54 51 48 43 39 35 33 31 30 29 28 27 27 27
57 57 57 56 56 56 56 57 56 56 56 56 55 55 55 54 54 53 53 53 54 54 54 54 54 54 53 52 50 47 43 38 33 29 28 28 27 27 27 27 26 25 25
55 55 55 54 54 55 55 55 54 53 53 52 52 52 52 52 52 52 52 52 51 51 51 51 51 50 47 44 40 37 34 29 26 25 25 25 26 27 27 27 26 25 24
53 53 53 53 52 52 51 50 50 49 49 49 49 49 49 49 49 49 48 49 49 48 47 46 44 41 37 34 31 28 25 24 23 23 24 26 27 27 27 26 25 24 23
50 50 50 49 48 48 47 46 46 46 46 46 46 46 46 46 46 47 46 46 45 43 42 39 35 31 28 24 21 20 19 20 21 23 25 26 26 26 25 23 21 20 20
47 47 46 45 44 44 43 43 43 43 43 43 43 44 44 44 44 43 41 40 38 37 34 31 26 22 19 16 15 15 16 18 21 23 24 25 24 23 21 19 18 17 16
43 42 41 41 40 40 40 40 40 41 41 42 42 41 41 40 39 37 35 33 31 28 26 23 18 14 12 11 11 13 15 17 19 21 22 22 21 19 17 16 15 15 14
38 37 37 37 37 38 38 39 39 39 39 39 38 37 36 34 32 30 27 24 22 21 18 14 11 8 7 8 10 12 14 17 19 20 21 21 20 18 17 16 15 15 15
34 34 35 36 36 37 37 37 37 36 35 34 32 30 29 27 25 22 19 17 16 13 10 7 5 5 6 7 10 12 14 17 19 20 21 21 20 18 17 17 17 17 17
33 34 35 35 36 36 35 34 33 31 29 27 25 23 22 20 18 16 13 11 9 6 4 3 3 4 6 8 10 11 14 17 19 21 22 21 21 19 18 18 19 19 19
33 34 34 34 34 33 31 29 27 25 22 20 18 17 16 15 13 12 9 6 3 2 3 4 5 5 7 8 10 12 14 17 20 22 23 22 21 21 20 19 20 21 21
32 32 32 31 30 28 25 23 20 18 16 15 14 13 12 11 10 8 5 4 5 6 6 6 6 7 8 9 11 13 15 17 20 22 23 23 22 22 22 22 22 23 24
31 30 28 26 24 21 19 17 15 13 12 11 10 10 9 8 7 5 6 8 9 9 8 8 8 8 9 10 12 13 15 18 20 22 23 24 24 23 23 23 24 25 26
27 25 23 20 18 15 13 12 10 9 8 8 7 7 7 6 6 8 10 11 10 10 9 9 9 9 10 11 13 14 16 18 20 22 23 24 24 24 24 24 25 26 27
22 20 18 15 13 11 9 7 6 5 5 5 5 6 6 8 10 11 12 11 11 10 10 10 10 10 11 12 13 15 17 19 20 22 23 24 24 25 25 25 25 26 28
19 16 14 11 9 7 6 4 3 3 4 5 5 7 9 11 12 12 12 12 11 11 10 11 11 11 11 13 14 15 17 19 20 22 23 24 24 25 25 26 26 26 27
16 14 12 9 7 6 5 5 5 5 6 7 8 10 12 13 13 13 12 12 11 11 11 11 11 12 12 13 14 16 17 19 20 22 23 24 25 25 25 26 26 26 26
16 14 12 10 9 8 8 8 8 9 9 11 12 14 15 14 14 13 12 12 12 12 12 12 12 12 13 13 15 16 18 19 20 22 23 24 25 26 26 26 25 25 25
18 16 15 13 13 13 13 13 13 13 13 14 15 15 14 13 13 12 12 12 12 12 12 12 12 12 13 14 14 16 17 19 20 21 22 23 25 26 26 26 26 25 25
22 21 20 18 18 17 17 16 16 16 17 16 16 15 14 13 12 12 12 12 11 11 12 12 12 12 13 14 14 15 17 18 19 20 21 22 23 24 25 25 25 25 25
25 24 23 23 22 21 20 19 18 17 17 16 15 14 13 12 12 12 12 12 12 11 11 11 12 12 12 13 14 15 16 16 17 18 19 20 21 22 23 23 23 24 24
27 26 25 24 23 22 20 19 17 16 15 14 13 12 12 12 12 12 12 12 12 12 11 11 11 12 12 12 13 13 14 15 16 17 17 18 19 20 20 20 21 21 21

GEFSGL_500_meanwind_042.txt.gz
Wind_Speed
38 39 40 41 43 44 45 47 48 49 50 50 51 50 51 51 51 52 53 55 56 57 58 59 60 60 61 62 62 61 61 61 60 60 61 62 62 62 62 61 59 57 55
40 41 42 44 46 47 49 50 51 52 52 52 52 53 53 53 53 54 55 55 56 57 57 58 58 59 58 58 58 58 58 59 58 58 58 59 59 58 56 55 53 50 47
44 45 46 47 49 50 51 52 53 53 53 54 54 54 54 54 54 55 55 55 56 56 56 56 56 55 55 55 55 55 55 55 56 55 55 54 53 51 50 47 44 42 40
46 47 48 50 51 52 53 54 54 54 54 54 54 54 55 55 55 55 55 55 54 54 53 52 52 52 52 52 52 52 52 53 52 50 48 46 44 43 41 39 37 36 36
47 49 50 51 52 53 54 54 55 55 55 55 55 55 55 54 54 54 53 52 50 50 49 49 49 49 50 50 50 50 49 48 45 43 40 38 36 36 35 34 33 33 34
46 48 50 51 52 53 54 54 54 54 54 54 54 54 53 53 52 51 50 49 48 47 48 48 48 48 48 47 47 46 44 40 37 35 33 32 31 31 32 32 33 32 31
47 49 50 51 52 53 53 53 52 52 52 52 52 51 50 49 49 48 47 47 47 47 47 47 47 46 44 43 41 39 36 32 30 28 27 28 29 30 31 30 30 29 28
48 49 50 50 51 51 50 50 50 50 49 49 49 48 47 47 46 46 46 46 46 45 45 44 42 41 39 36 34 31 28 27 25 26 27 28 29 28 27 26 25 24 24
48 48 48 48 48 48 48 47 47 47 47 46 46 45 45 45 45 45 45 45 44 43 41 38 36 33 31 28 25 23 22 22 23 25 26 26 26 26 25 23 22 21 21
46 46 46 46 46 45 45 45 44 44 44 43 43 43 44 43 43 43 42 41 39 37 35 31 28 25 22 20 17 16 17 19 22 23 24 24 24 22 21 20 19 18 18
43 44 44 43 43 43 43 42 42 42 42 42 42 41 41 40 40 38 37 35 32 29 26 23 19 16 13 11 11 13 15 17 19 20 21 21 21 19 18 18 18 18 17
41 41 41 41 40 40 40 40 40 40 39 39 38 37 36 35 33 31 28 25 23 21 18 14 11 8 7 8 9 11 14 16 17 18 19 19 18 18 18 18 18 18 16
38 38 39 39 39 39 39 38 37 36 36 35 33 31 29 27 25 22 19 17 15 13 10 7 4 4 5 7 8 11 13 15 16 17 18 17 18 18 18 18 18 18 15
37 37 38 38 37 36 36 34 33 31 30 28 25 23 22 20 17 15 13 11 9 6 3 2 2 4 6 7 9 11 13 14 16 16 17 17 18 18 19 19 19 18 15
36 36 36 35 34 32 30 28 26 24 22 20 18 17 15 14 11 9 8 5 2 1 2 3 4 6 7 8 10 12 13 15 16 17 17 18 18 19 20 20 20 19 17
34 33 31 30 27 25 22 20 17 16 14 13 12 11 10 8 6 4 1 2 4 5 5 6 7 8 9 10 12 13 15 16 17 18 18 19 19 20 21 21 21 21 20
28 26 24 22 19 16 14 12 11 9 8 7 7 6 4 3 2 4 5 7 7 7 8 8 9 9 10 12 13 15 16 18 18 19 20 20 21 21 22 22 23 23 23
22 19 16 14 12 9 8 6 5 5 4 3 3 2 3 5 7 8 9 9 9 9 9 10 10 11 12 13 15 17 18 19 19 20 21 21 22 23 24 24 24 24 25
16 14 11 8 6 4 3 2 2 2 2 3 4 6 7 9 10 10 10 10 10 10 11 11 12 12 13 15 16 18 19 20 20 21 21 22 22 23 24 25 25 25 25
14 11 8 6 4 3 3 3 4 5 6 7 8 9 10 11 11 11 11 11 11 12 12 12 13 14 14 16 17 18 20 21 22 22 23 23 23 23 24 24 25 25 24
14 12 9 8 7 7 7 7 7 8 9 11 12 12 12 12 12 12 12 12 12 12 13 13 14 14 15 16 17 18 20 21 22 24 24 25 25 25 24 24 24 24 24
17 15 13 12 10 10 10 10 11 12 13 14 14 14 13 13 12 12 12 12 12 13 13 13 13 14 15 16 17 18 20 21 22 23 24 25 25 25 25 25 24 23 23
19 18 16 15 14 13 13 13 13 14 14 14 14 14 13 13 12 12 12 12 13 13 13 13 13 13 14 15 16 18 19 20 21 22 23 23 24 24 25 24 24 23 23
20 19 17 16 15 14 14 14 14 14 14 14 13 13 12 12 12 12 12 12 12 12 12 12 13 13 13 14 15 16 17 18 20 21 21 22 23 23 23 23 23 22 22
20 18 17 15 14 14 13 13 13 13 13 12 12 12 12 12 12 11 11 11 11 11 11 11 12 12 12 13 14 15 16 17 18 19 20 20 21 22 22 22 22 22 21
20 18 16 14 13 12 11 11 11 11 11 11 11 11 11 11 11 11 11 11 11 11 11 11 11 11 11 12 12 13 14 16 17 17 18 19 20 20 21 21 21 21 20

GEFSGL_500_meanwind_048.txt.gz
Wind_Speed
39 41 43 44 46 47 49 50 52 53 54 54 54 54 54 53 54 54 54 55 55 55 56 57 58 59 60 61 62 63 64 65 65 65 66 67 66 66 65 65 65 63 62
41 43 45 47 48 50 51 53 54 55 56 56 56 56 56 56 56 56 57 57 57 57 57 58 58 58 59 59 60 61 61 62 62 61 61 62 62 62 61 61 59 58 56
45 46 48 49 51 53 54 55 55 56 57 58 57 57 57 57 57 57 57 57 57 57 57 57 57 57 57 57 58 58 59 59 59 58 58 57 57 57 56 54 53 51 50
48 50 52 53 54 54 55 56 56 56 56 57 57 57 57 57 58 58 57 57 56 56 55 55 55 55 55 55 55 55 56 55 55 55 53 52 51 50 48 47 45 44 43
51 52 54 54 54 54 55 55 54 55 55 55 56 57 57 57 57 57 56 55 54 54 54 54 53 53 53 53 53 52 53 52 51 49 47 45 44 43 42 40 39 38 38
49 49 50 51 52 52 52 52 52 53 54 55 55 55 55 55 55 54 54 53 53 52 51 51 51 51 50 50 49 49 48 47 44 42 40 38 37 36 35 35 35 35 33
46 45 45 46 48 49 50 50 51 52 53 53 53 53 53 52 52 52 51 51 50 49 49 49 48 48 46 46 45 44 42 40 37 35 33 32 31 31 31 31 31 31 30
43 44 45 46 46 47 48 49 49 50 50 50 51 50 50 49 49 49 48 47 47 46 46 45 44 43 42 40 38 36 34 32 29 28 27 27 27 28 28 28 28 27 27
43 44 46 46 47 47 48 48 48 49 49 48 48 48 47 47 46 46 45 44 43 43 42 41 39 37 35 33 31 28 26 24 23 23 23 24 25 25 26 26 26 26 25
43 44 45 46 46 47 47 47 47 47 47 46 46 45 44 43 43 42 41 40 40 39 37 35 32 29 27 25 22 20 19 19 19 20 22 23 23 23 24 25 25 25 24
42 43 44 44 45 45 45 45 45 44 44 43 42 41 40 39 38 37 37 36 34 32 29 26 23 20 19 17 15 15 14 15 17 18 19 20 21 23 23 24 25 24 23
41 42 42 43 43 43 42 42 41 40 39 38 37 36 35 34 33 32 31 29 26 23 19 17 14 13 11 11 11 11 12 14 15 16 18 19 20 22 23 23 23 23 22
40 40 41 41 40 40 39 38 37 36 34 33 32 31 30 28 27 25 23 20 17 14 12 10 8 7 7 7 8 9 11 13 14 15 17 19 20 21 22 22 22 21 20
38 38 38 38 37 36 34 33 31 29 28 27 25 24 23 21 19 17 14 12 9 7 5 4 3 4 5 5 7 9 10 12 14 16 17 19 19 20 21 21 21 21 21
36 36 35 34 32 30 27 25 23 21 20 19 17 16 15 13 11 9 6 4 3 1 1 2 4 5 6 7 9 10 12 13 15 16 18 19 20 20 21 21 21 21 21
33 31 29 27 25 22 20 18 16 15 14 13 12 10 8 6 4 2 2 2 3 4 5 5 7 8 8 9 10 12 13 14 15 16 17 18 19 20 21 21 21 21 21
29 26 23 19 17 16 14 12 11 11 10 9 8 7 5 4 4 4 5 6 6 7 7 8 9 10 11 12 12 13 14 15 15 16 17 18 19 20 20 21 21 21 21
24 20 17 14 12 11 10 9 8 7 7 7 7 6 6 6 7 7 8 8 8 9 10 11 12 12 13 14 14 15 15 16 16 17 17 18 18 19 20 21 21 21 22
20 16 14 12 11 9 8 8 7 7 7 6 7 7 8 9 9 9 9 10 11 11 12 13 13 14 14 15 15 15 16 16 17 18 18 19 19 19 19 20 20 21 21
18 16 14 13 11 10 9 8 8 8 9 9 9 10 11 11 11 11 11 12 12 13 13 14 14 14 14 15 15 16 16 17 18 18 19 19 20 20 20 20 20 20 20
18 17 16 14 13 12 11 11 10 10 11 12 12 12 12 12 12 13 13 13 13 14 14 14 13 13 14 14 15 15 16 17 18 19 19 20 20 20 20 20 20 20 20
17 17 16 15 14 13 12 12 12 12 13 13 13 13 13 13 13 13 13 14 14 13 13 13 13 13 13 13 14 15 15 16 17 18 19 20 20 21 21 20 20 20 20
15 15 14 14 13 13 13 12 13 13 13 13 14 13 13 13 13 13 13 13 13 13 12 12 12 12 12 13 13 14 15 15 17 18 19 20 20 21 21 21 20 20 20
14 13 12 12 12 12 12 12 12 12 13 13 13 13 13 13 12 12 12 12 11 11 11 11 11 11 11 12 13 14 14 15 16 18 19 19 20 21 22 21 21 21 20
13 12 11 10 10 10 10 11 11 12 12 12 12 12 12 12 11 11 11 10 10 10 10 10 10 10 11 12 13 13 14 15 17 18 19 19 20 21 22 22 22 21 21
13 11 10 10 9 9 9 9 10 10 11 11 11 11 11 11 11 10 10 10 9 9 9 9 9 10 10 12 12 13 14 16 17 18 19 20 21 22 23 23 23 23 23

GEFSGL_500_meanwind_054.txt.gz
Wind_Speed
42 42 42 43 44 45 47 48 49 51 51 52 53 54 55 57 58 59 59 59 60 60 60 60 60 60 60 61 62 63 63 64 64 65 66 67 67 67 67 66 66 65 64
41 42 43 45 46 48 50 52 53 54 56 57 58 58 59 61 62 62 62 62 62 62 61 61 61 61 61 62 62 62 63 64 64 63 64 64 64 64 63 62 61 60 60
42 43 45 47 49 51 53 55 56 58 59 61 62 63 63 63 64 64 63 63 62 62 61 60 60 60 61 61 61 62 62 62 63 61 60 60 59 58 57 57 56 56 55
44 46 48 50 53 55 56 57 59 60 61 62 63 63 64 63 63 63 62 61 61 60 59 59 59 59 59 59 60 60 60 59 58 57 56 55 54 54 53 51 50 48 47
45 47 49 51 53 54 56 57 58 59 60 61 61 62 62 61 60 59 57 57 57 57 57 57 57 57 57 57 57 57 56 54 53 53 52 50 48 47 46 44 41 39 38
43 45 46 47 48 50 52 54 55 56 57 57 56 56 55 55 55 55 55 55 55 55 55 55 55 55 55 54 53 53 51 49 47 46 44 42 40 38 36 34 33 32 32
41 42 43 44 45 47 48 49 50 50 50 51 52 52 52 52 53 53 53 53 53 53 53 53 52 51 49 48 48 46 44 42 41 39 36 33 31 29 28 28 29 30 30
39 40 41 42 44 45 46 47 47 47 48 49 49 50 50 51 51 51 51 51 50 49 48 46 45 44 43 42 40 39 38 36 33 30 27 25 25 24 25 25 26 26 27
37 38 40 42 42 43 44 44 45 46 46 47 47 47 47 47 47 46 45 44 43 42 41 40 39 39 37 34 33 32 30 27 25 23 22 21 21 21 22 23 23 23 24
35 37 38 40 40 41 42 42 43 43 43 44 44 43 43 42 42 41 39 39 38 37 35 34 33 31 28 26 25 23 21 20 19 19 19 18 19 19 20 21 21 22 22
34 36 37 37 38 39 40 40 40 41 41 41 40 39 38 38 36 35 34 33 32 30 28 26 24 22 20 18 16 15 14 14 14 15 16 16 17 18 19 20 20 21 21
32 32 33 35 36 37 37 38 38 37 37 36 36 35 33 32 30 29 28 26 24 22 20 18 16 14 12 10 9 9 10 10 11 13 14 15 17 18 19 19 20 21 21
29 31 32 34 34 35 34 34 33 32 31 30 29 27 26 24 23 21 20 18 16 14 12 9 8 6 5 5 6 7 8 9 11 12 14 15 16 18 19 20 20 21 21
28 30 31 32 31 30 28 26 25 24 23 21 20 18 17 16 14 13 11 10 8 5 3 2 2 2 3 4 5 6 8 9 11 13 14 16 17 18 19 20 21 21 22
26 28 28 27 24 23 21 20 19 18 17 15 14 13 11 9 7 5 3 1 1 2 3 4 5 5 5 6 7 8 9 11 12 14 15 17 18 19 20 20 21 21 21
24 25 24 22 20 18 17 16 15 15 14 12 11 9 8 5 4 4 5 5 6 7 7 8 8 8 8 8 9 10 11 12 13 15 17 18 19 20 20 21 21 21 22
22 22 20 19 17 15 14 14 14 13 12 11 10 9 8 7 7 7 8 8 9 9 9 10 10 10 11 11 11 11 12 14 15 17 18 19 20 21 21 21 21 21 22
20 19 18 17 15 14 13 13 12 12 11 11 10 10 9 9 9 9 10 10 11 11 11 11 11 12 12 12 12 13 14 15 16 18 19 20 21 21 21 21 21 21 21
17 17 17 16 15 14 13 12 11 12 12 12 12 11 11 11 11 11 11 12 12 12 12 12 12 12 12 12 13 14 15 16 18 19 20 21 21 21 21 21 21 21 21
16 15 15 15 14 13 13 12 12 12 12 12 12 12 12 12 12 13 13 13 13 13 12 12 12 12 12 13 13 15 16 18 19 20 21 22 22 22 21 21 21 21 20
14 14 13 13 12 12 12 12 12 12 12 13 13 13 13 13 13 14 14 13 13 13 12 12 12 12 12 13 14 15 16 18 19 20 21 22 22 22 22 22 21 21 20
11 11 11 11 11 11 11 12 12 13 13 13 13 13 13 13 13 13 13 13 12 12 12 11 11 12 12 13 14 15 17 18 19 20 21 22 22 22 22 22 22 21 20
10 9 9 9 9 10 10 11 12 12 13 13 13 12 12 13 13 12 12 12 11 11 10 11 11 11 12 13 14 15 17 17 18 20 21 21 22 22 22 22 22 22 21
9 8 8 8 8 9 9 10 11 11 12 12 12 12 11 11 11 11 11 11 10 10 9 10 10 11 11 13 14 15 16 17 18 19 20 21 22 22 22 22 22 22 21
8 8 8 8 8 8 9 9 10 10 11 11 11 11 10 10 10 9 9 9 9 9 9 9 10 11 11 12 13 14 15 16 18 19 20 21 21 22 22 22 22 22 22
10 9 9 8 8 8 8 9 9 9 10 10 10 10 9 9 9 9 9 8 8 9 9 9 10 11 11 12 13 14 15 16 17 18 19 20 20 21 22 22 22 22 21

GEFSGL_500_meanwind_060.txt.gz
Wind_Speed
46 47 48 48 48 48 48 48 48 47 47 48 49 50 51 52 54 55 56 57 58 59 60 61 61 62 62 62 62 63 62 62 62 62 63 63 63 63 63 63 62 62 62
45 46 47 48 48 48 49 49 49 49 49 50 51 52 53 55 57 58 59 60 61 61 62 62 62 62 62 62 62 61 61 61 61 60 60 60 60 61 60 60 59 58 57
45 46 46 46 47 47 47 48 49 50 51 52 53 55 56 58 59 60 60 61 62 61 61 61 62 61 61 61 60 59 59 59 58 57 57 57 57 57 56 56 55 53 53
40 42 43 44 44 45 46 47 49 50 51 53 55 56 57 59 59 61 61 62 62 61 61 60 59 58 58 58 57 57 57 56 55 54 53 53 53 52 51 49 48 48 47
35 36 38 39 39 41 43 45 47 50 51 53 55 56 58 59 60 60 60 59 59 59 58 57 55 55 55 55 55 54 53 51 50 49 48 47 46 46 44 43 42 40 39
33 35 36 37 39 40 43 45 46 48 50 52 53 55 56 57 57 58 58 57 57 56 55 54 53 52 51 50 49 48 46 44 43 43 41 40 39 38 37 36 34 33 32
32 34 35 37 38 40 42 43 45 47 48 50 51 53 54 54 55 55 55 54 54 53 52 50 48 47 45 44 43 41 40 39 37 35 34 33 32 32 31 30 29 28 28
32 33 35 37 38 40 41 42 44 45 47 49 50 51 52 52 52 52 51 50 49 48 46 44 42 40 39 37 36 35 34 33 31 30 29 28 27 26 25 25 24 25 26
32 34 35 36 38 39 40 42 44 45 46 47 48 49 49 49 48 48 47 45 44 41 39 37 36 34 32 31 30 29 28 26 25 24 23 21 20 21 21 22 23 24 25
31 33 34 36 37 38 39 41 42 43 44 45 45 45 45 45 44 42 40 38 36 33 31 30 27 26 25 24 23 22 20 19 19 18 17 17 18 19 20 21 22 23 24
31 32 33 34 35 36 37 39 40 41 41 41 40 40 39 38 36 34 32 30 28 25 23 21 19 18 17 17 15 14 14 14 14 14 15 16 17 19 20 21 22 23 24
29 29 30 31 32 34 35 36 36 36 35 34 33 33 31 30 27 25 22 20 18 16 14 13 12 12 11 10 10 10 10 11 12 13 15 16 18 19 20 21 21 22 22
25 26 27 28 30 31 32 31 31 30 28 27 26 25 23 21 19 17 14 12 10 8 6 6 6 6 6 6 6 7 8 10 12 13 15 17 18 19 20 21 21 21 22
23 24 25 26 26 26 26 25 25 24 23 22 21 19 17 15 13 11 8 6 5 4 4 5 5 5 5 5 6 8 9 11 13 14 16 17 19 19 20 21 21 21 22
21 21 22 22 23 23 22 21 21 20 19 18 16 15 13 11 10 8 7 7 7 8 8 8 8 7 7 8 9 10 11 13 14 16 17 18 19 20 20 21 21 21 21
18 19 19 19 20 20 19 18 18 17 16 15 14 12 11 10 9 9 9 9 10 10 10 10 9 9 10 10 11 12 13 14 16 17 18 19 20 20 21 21 21 20 20
16 16 17 17 17 17 16 16 15 15 14 13 13 11 11 10 10 11 11 12 12 12 11 11 11 11 12 12 13 14 15 16 18 18 19 19 20 21 21 21 20 20 19
14 15 15 15 15 15 14 14 13 13 13 13 12 12 11 11 12 12 13 13 12 12 12 12 12 13 13 13 14 15 17 18 19 20 20 20 21 22 21 20 20 19 19
13 13 13 13 13 13 13 13 13 12 12 12 12 12 12 13 13 14 14 13 13 12 12 13 13 13 14 15 16 17 18 18 19 20 20 21 22 22 21 21 20 19 19
11 12 11 12 12 12 11 11 12 12 12 12 13 13 14 14 14 14 14 13 12 12 12 13 13 14 15 16 16 17 18 19 20 20 20 21 21 22 21 21 20 19 19
10 10 10 10 10 10 10 11 11 11 12 13 13 14 14 14 14 14 14 13 13 13 13 13 14 14 15 16 17 17 18 19 20 20 20 21 21 21 21 21 20 19 19
9 9 9 9 9 9 10 10 10 11 11 12 12 13 13 13 13 13 13 13 13 13 13 13 14 14 15 16 17 17 18 20 20 20 20 20 20 20 21 21 20 19 19
9 8 8 8 8 8 9 9 10 10 10 11 11 11 12 12 12 12 12 12 12 12 13 13 13 14 15 16 17 17 18 19 20 20 20 20 20 20 20 21 21 20 19
9 9 9 9 9 9 9 9 9 9 10 10 10 10 10 11 11 11 11 12 12 12 13 13 14 14 15 16 16 17 18 19 19 19 20 20 20 20 20 20 20 20 19
10 10 10 10 9 9 9 9 9 9 9 9 9 9 10 10 10 10 11 11 12 12 12 13 13 14 15 16 16 17 18 19 19 19 19 19 19 19 19 19 19 19 19
11 11 10 10 9 9 9 9 9 9 9 9 9 9 9 9 10 10 11 11 12 12 13 13 13 14 15 16 16 17 18 18 18 19 19 19 19 19 19 19 19 19 18

GEFSGL_500_meanwind_066.txt.gz
Wind_Speed
43 43 44 44 45 46 46 47 48 49 50 50 50 50 49 48 47 48 48 50 51 53 54 54 56 58 60 60 61 61 62 63 63 63 63 63 63 64 64 63 62 62 62
43 43 43 43 44 44 45 46 47 48 48 49 49 49 49 49 49 50 51 52 54 55 56 56 57 58 60 60 60 61 61 61 61 60 60 61 61 60 59 58 57 57 57
41 41 41 42 42 43 43 45 46 46 47 47 46 47 49 50 51 52 52 53 54 55 55 56 56 57 58 58 59 58 58 57 56 55 55 55 54 53 52 51 51 50 49
38 39 40 40 41 41 42 43 43 44 44 45 46 48 49 50 51 52 52 53 54 54 55 56 56 56 56 55 54 53 52 51 49 48 47 47 47 46 45 44 43 42 42
36 37 38 39 39 40 41 42 43 42 43 45 46 48 48 49 50 51 53 54 54 55 55 55 54 53 52 50 48 47 46 45 44 43 43 42 41 40 39 38 38 37 37
34 35 36 36 38 39 40 41 42 42 43 44 45 46 47 48 49 51 52 53 53 53 52 51 50 49 47 45 43 42 41 40 39 38 37 35 34 34 34 34 34 34 35
32 33 34 35 37 37 38 39 40 41 42 43 44 46 46 47 48 49 49 49 49 48 47 46 44 42 40 38 36 34 33 32 31 30 29 28 28 29 29 30 31 32 32
30 31 31 33 34 35 36 37 38 39 40 42 43 44 45 46 46 46 45 45 44 42 41 39 36 34 32 30 28 27 26 25 24 23 23 23 24 25 26 27 27 27 27
28 29 29 30 31 32 33 34 36 37 38 39 40 40 41 41 41 40 39 38 37 34 32 30 28 26 25 23 21 20 19 19 19 19 19 20 21 22 22 23 22 22 23
26 27 28 29 30 31 32 32 33 34 35 36 36 37 37 36 35 34 33 31 28 26 24 22 20 18 16 15 14 13 13 13 14 14 15 16 17 18 18 18 19 20 20
25 25 26 27 27 28 28 29 30 31 32 32 31 31 31 30 28 26 24 22 20 17 16 14 13 11 10 9 9 9 10 10 11 12 13 14 15 16 17 18 18 19 19
22 23 23 23 24 24 25 26 27 28 28 27 27 26 25 23 21 19 17 15 13 11 10 8 8 7 7 7 7 7 8 9 10 11 12 13 14 15 16 17 17 18 18
20 20 20 21 21 22 23 24 24 24 24 24 23 21 20 18 16 14 12 11 9 9 8 8 8 7 7 7 8 8 8 9 10 11 12 13 15 16 16 17 17 18 18
18 18 18 19 19 20 20 21 20 20 20 19 18 17 14 13 12 11 10 9 9 9 10 10 10 9 9 9 9 9 10 10 11 12 13 14 15 16 16 16 16 17 18
16 16 16 16 17 17 18 18 17 17 17 16 14 13 11 11 10 10 9 9 9 10 10 10 10 10 10 10 10 10 11 11 12 12 13 14 15 15 15 15 16 17 17
14 14 14 15 15 15 15 15 14 14 13 12 11 10 10 10 10 9 9 10 10 10 10 10 10 10 11 11 11 11 11 12 12 12 13 14 15 15 14 15 15 16 15
12 12 12 12 12 12 12 11 11 11 11 10 9 9 9 9 10 10 10 10 11 11 10 10 10 11 11 11 12 12 12 12 12 12 13 13 14 14 14 14 14 14 14
10 10 10 10 10 10 10 9 9 9 8 8 8 9 9 9 10 10 10 10 10 11 10 10 10 11 11 12 12 12 12 12 12 12 12 12 13 13 13 12 13 13 13
9 9 9 8 8 7 7 7 7 7 7 7 8 8 9 9 9 10 10 10 10 10 10 10 11 11 12 12 12 13 13 13 13 13 13 13 13 13 12 12 12 13 13
8 7 7 6 6 5 5 6 6 6 6 7 7 8 8 9 9 9 9 9 9 10 10 10 11 12 12 12 13 13 14 14 13 13 13 13 13 13 12 12 12 12 13
7 7 6 5 5 5 5 5 6 6 6 6 7 7 8 8 9 9 9 9 9 10 10 10 11 12 12 13 13 14 14 14 14 14 14 13 13 13 12 12 11 11 12
7 7 6 6 5 5 5 5 6 6 6 6 6 7 7 8 8 9 9 9 9 10 10 11 11 12 13 13 14 14 15 14 14 15 14 14 13 13 12 12 11 11 12
7 7 7 6 6 6 6 6 6 6 6 6 6 7 7 8 8 9 9 9 9 10 10 11 12 12 13 13 14 15 15 15 15 15 15 14 14 13 13 12 11 11 11
8 7 7 7 6 6 6 6 6 6 6 6 6 6 7 7 8 8 9 9 10 10 10 11 12 12 13 14 14 15 15 15 15 15 14 14 14 13 13 12 12 12 12
8 8 7 7 6 6 6 6 6 6 6 6 6 7 7 7 8 8 9 9 10 10 11 11 12 13 13 14 14 14 15 15 15 15 15 14 14 13 13 13 13 12 12
9 9 8 8 7 7 6 6 6 6 7 7 7 7 7 8 8 9 9 10 10 10 11 12 12 13 13 14 14 15 15 15 15 15 15 15 14 14 14 13 13 13 13

GEFSGL_500_meanwind_072.txt.gz
Wind_Speed
38 40 41 42 43 43 44 45 46 45 46 46 46 47 48 48 48 48 48 48 49 50 51 52 53 53 53 54 55 56 57 57 58 59 59 59 59 58 59 60 61 61 60
40 41 41 42 43 44 44 45 45 45 46 47 47 48 48 49 49 49 50 49 50 51 52 52 53 53 53 54 55 55 56 56 55 55 55 55 55 55 55 56 55 55 54
40 40 41 41 42 43 44 44 45 46 46 47 47 48 48 49 50 50 50 50 51 51 52 52 52 52 52 52 52 52 53 52 51 50 49 50 49 49 48 48 49 49 48
37 38 39 40 41 42 43 44 44 45 45 45 46 46 47 48 49 49 50 50 50 50 50 50 49 49 50 49 49 48 48 47 46 46 45 44 44 43 43 43 43 43 42
37 38 38 39 40 41 41 42 43 43 44 44 44 45 46 46 47 48 48 48 48 48 47 47 48 47 47 46 45 44 44 43 42 41 40 40 39 38 37 37 36 36 37
36 36 37 38 38 38 39 39 39 40 40 41 42 43 43 44 44 45 45 45 45 45 46 46 45 44 43 42 41 40 39 37 36 35 34 33 32 32 31 31 31 31 30
33 33 34 34 34 35 35 35 36 37 38 39 40 40 41 42 42 43 43 42 42 42 42 41 39 37 36 34 33 32 32 31 30 30 29 28 27 26 26 26 27 27 27
29 29 29 29 30 31 32 32 33 34 35 36 37 38 38 38 39 38 37 37 36 35 34 32 30 29 28 28 27 26 26 25 24 23 22 22 21 22 22 22 22 22 22
26 26 26 27 27 28 29 30 30 31 31 32 33 33 34 34 34 33 33 31 30 28 26 25 23 22 21 21 20 19 19 18 17 17 17 17 17 18 18 18 18 19 19
23 24 24 25 25 26 26 27 27 27 28 29 29 30 29 29 28 27 25 24 23 21 20 18 16 16 15 15 14 14 13 13 13 12 13 13 14 16 16 16 17 17 18
22 22 23 23 23 23 24 24 24 24 24 25 25 25 24 23 23 21 20 19 18 16 15 14 13 13 13 13 12 11 11 11 10 11 11 12 14 14 15 15 16 17 17
20 20 20 21 21 21 21 20 20 20 21 21 21 20 19 19 18 17 16 16 14 13 12 12 12 12 12 13 13 12 11 11 10 10 11 11 12 13 14 15 16 16 16
18 18 19 19 18 18 18 17 17 17 17 18 17 17 16 16 15 14 14 12 11 11 11 11 12 12 13 13 13 13 12 11 10 10 10 10 12 13 14 14 15 14 15
17 17 17 17 16 16 15 15 15 15 15 15 14 13 13 12 11 11 11 10 10 10 10 11 11 12 13 13 13 13 13 12 11 10 10 10 11 12 13 13 13 13 14
15 16 15 15 14 14 13 13 12 13 13 12 12 11 11 10 10 9 9 9 9 10 10 10 11 11 12 12 12 12 12 11 11 11 11 11 11 12 13 13 12 12 13
13 13 13 13 12 12 11 10 10 10 10 10 10 10 9 9 9 9 9 9 9 9 9 10 10 11 11 11 11 11 11 11 11 10 11 11 11 11 11 11 11 11 12
11 11 11 11 10 9 9 8 8 8 8 8 8 8 8 8 9 9 9 9 9 9 10 10 11 11 12 11 11 11 11 11 11 10 10 11 11 10 10 10 10 10 11
9 9 8 8 7 7 7 6 6 6 6 6 7 7 8 8 9 9 9 9 9 10 11 11 11 12 12 12 12 12 12 11 11 10 10 10 10 9 9 9 9 10 11
8 7 6 6 6 5 5 5 5 5 5 6 6 7 7 8 8 9 9 10 10 11 11 11 12 12 12 12 12 12 12 11 11 10 10 10 9 9 9 8 8 9 10
7 6 6 6 6 6 5 5 5 5 5 6 6 7 7 8 8 9 10 10 11 11 12 12 12 12 12 12 12 12 12 12 11 10 10 9 9 9 8 8 8 8 9
6 6 6 6 6 6 6 5 5 5 6 6 6 7 7 8 9 10 10 11 11 12 12 12 12 12 13 12 12 12 12 12 11 11 10 10 9 8 8 7 8 8 9
6 6 6 7 7 7 6 6 6 6 6 6 7 7 8 8 9 10 11 11 11 12 12 12 12 13 13 13 13 13 12 12 12 11 11 10 9 9 8 7 8 8 8
7 7 7 7 7 7 7 7 7 7 7 7 7 8 8 9 10 11 11 11 12 12 12 12 13 13 13 13 13 13 12 12 12 11 11 10 9 9 8 8 8 8 8
9 8 8 8 7 7 7 7 7 7 7 8 8 8 9 10 10 11 11 11 12 12 12 12 13 13 13 13 13 13 12 12 12 11 11 10 10 9 9 8 8 9 9
10 9 9 9 8 8 7 7 7 7 8 8 9 9 10 10 11 11 11 12 12 12 12 13 13 13 14 13 13 13 12 12 12 11 11 11 10 10 9 9 9 9 9
11 11 10 9 9 9 8 8 8 8 9 9 10 10 11 11 11 12 12 12 13 13 13 13 13 13 13 13 13 13 13 12 12 12 11 11 11 11 10 10 10 10 11

GEFSGL_500_meanwind_078.txt.gz
Wind_Speed
30 31 32 33 34 34 35 37 37 38 39 40 40 41 42 42 43 43 43 44 45 46 46 47 48 48 49 50 51 51 51 51 51 51 52 52 53 54 55 55 55 55 55
32 32 33 35 36 36 37 38 38 39 40 40 41 42 42 43 43 43 43 44 44 45 45 46 46 47 47 48 48 48 49 49 49 50 52 52 52 53 53 53 53 53 52
33 34 34 35 36 37 37 38 39 39 40 40 40 41 41 41 42 42 42 42 42 42 43 44 44 45 46 47 47 47 48 49 50 50 50 50 50 50 49 48 47 47 47
33 34 35 35 36 37 38 38 38 38 39 39 39 38 39 39 39 40 40 39 39 40 41 42 42 43 43 43 44 45 45 45 45 45 45 46 46 46 45 44 43 42 41
34 35 35 35 35 35 35 35 35 35 35 36 36 36 37 37 37 37 37 37 38 39 39 40 40 40 41 41 40 40 40 40 40 40 40 40 40 39 39 38 38 37 36
32 32 33 33 33 32 33 33 33 33 33 33 34 34 34 34 34 35 35 36 36 37 37 37 36 36 36 35 35 35 34 34 34 34 34 33 32 32 31 31 30 30 29
29 30 30 30 30 30 30 30 30 30 30 30 30 31 31 31 31 32 32 33 33 32 30 30 30 29 29 29 28 27 27 27 26 26 25 25 25 25 25 25 24 23 23
26 27 27 26 26 26 26 26 26 26 27 27 28 28 27 28 28 28 28 26 25 25 25 24 24 23 23 22 21 21 21 20 20 19 19 19 20 20 20 19 19 19 19
24 23 23 23 23 23 23 24 24 25 25 25 24 24 24 24 24 23 22 22 22 22 21 21 20 20 19 18 18 17 17 16 16 15 15 15 15 15 15 15 15 15 15
21 21 21 21 22 22 22 22 23 22 22 22 21 21 21 21 21 21 20 19 19 20 19 19 18 18 17 17 16 16 15 14 14 13 13 14 13 13 13 13 12 12 13
20 20 20 21 21 21 21 21 21 20 20 19 18 18 19 19 19 18 18 18 17 17 17 16 16 16 16 15 15 14 13 12 12 13 13 13 13 12 12 12 11 11 12
18 19 19 19 20 20 20 20 19 18 17 16 16 16 16 16 16 16 15 15 15 15 14 14 14 14 15 15 15 14 13 13 13 13 13 13 12 11 11 11 11 11 12
17 17 18 18 18 18 18 17 16 15 15 14 14 14 14 14 14 13 13 13 14 13 13 12 13 13 14 14 15 15 14 13 13 13 13 13 12 11 11 11 11 12 12
16 16 16 16 16 15 15 14 14 13 13 12 12 12 12 11 12 12 12 13 13 12 12 12 13 14 14 14 15 15 14 14 13 13 13 12 12 11 11 11 11 12 12
14 14 13 13 13 13 12 12 11 11 11 10 10 10 10 10 11 11 12 12 12 12 12 13 14 14 14 15 15 15 14 14 13 13 13 12 12 11 11 11 11 12 12
10 10 10 10 9 9 9 9 9 9 9 8 8 9 9 9 10 10 11 11 12 12 13 13 14 14 14 14 14 14 14 14 13 13 13 12 12 11 11 11 11 12 12
7 7 7 7 7 7 7 7 7 7 7 7 7 7 8 8 9 9 10 11 12 12 13 13 14 14 14 14 14 14 14 13 13 13 12 11 11 11 11 11 11 11 12
5 5 5 5 6 6 6 5 5 5 5 6 6 7 7 7 8 9 10 11 11 12 13 13 13 13 14 14 14 14 13 13 13 13 12 11 10 10 10 10 11 11 12
5 5 5 5 5 6 5 5 5 5 5 5 6 6 7 7 9 10 11 11 12 12 13 13 13 13 13 14 14 13 13 13 12 12 11 11 10 9 9 10 11 11 12
5 5 5 5 6 6 6 6 5 5 6 6 6 6 7 8 9 10 10 11 11 12 12 12 13 13 13 13 13 13 13 12 12 11 11 10 9 9 9 10 10 10 11
6 6 6 6 6 6 6 6 6 6 6 6 6 7 8 8 9 10 10 11 11 12 12 13 13 13 13 13 12 12 12 12 11 11 10 10 9 9 9 9 10 10 10
7 7 6 6 6 6 6 6 7 7 7 7 7 8 8 9 9 10 10 11 11 12 12 13 13 13 13 13 12 12 12 11 11 11 10 10 9 9 9 9 9 10 10
9 8 8 7 7 7 8 8 8 8 8 8 8 9 9 10 10 10 11 11 12 12 13 13 13 13 13 12 12 12 12 11 11 11 10 10 9 9 9 9 9 10 10
11 10 9 8 9 9 9 9 9 9 9 9 9 9 10 10 10 11 11 12 12 13 14 14 14 13 13 13 12 12 12 11 11 11 10 10 10 10 10 10 10 11 11
12 11 10 10 10 10 10 10 10 10 10 10 10 10 11 11 11 12 12 13 13 14 14 14 14 14 14 14 13 13 12 12 12 12 11 11 11 11 11 12 12 12 12
13 12 12 12 12 11 11 11 11 11 11 11 11 11 12 12 13 13 13 14 14 15 15 15 15 15 15 15 15 14 14 13 13 13 13 13 13 13 13 13 13 13 14